GLO1830 SBBR-SBGL

Flight info

Callsign GLO1830
Flight time N/A
Altitude 35000
Route GEPMO UZ24 MAVGU
Aircraft B38M/M-SDE1FGHILORVWXY/HB1

Departure

Time 2026-05-01 08:17
Airport Presidente Juscelino Kubitschek International Airport (SBBR)

Arrival

Time N/A
Airport Rio Galeão – Tom Jobim International Airport (SBGL)
Time Latitude Longitude Altitude Speed Heading
2026-05-01 08:00 -15.86709 -47.91980 3483 ft 0 kts 185°
2026-05-01 08:09 -15.86680 -47.91977 3482 ft 2 kts 185°
2026-05-01 08:09 -15.86665 -47.91976 3481 ft 2 kts 185°
2026-05-01 08:09 -15.86650 -47.91975 3481 ft 2 kts 185°
2026-05-01 08:10 -15.86621 -47.91969 3480 ft 2 kts 227°
2026-05-01 08:10 -15.86615 -47.91950 3479 ft 0 kts 265°
2026-05-01 08:13 -15.86617 -47.91982 3479 ft 10 kts 265°
2026-05-01 08:13 -15.86605 -47.92216 3479 ft 15 kts 295°
2026-05-01 08:14 -15.86551 -47.92314 3477 ft 15 kts 304°
2026-05-01 08:14 -15.86524 -47.92423 3474 ft 16 kts 266°
2026-05-01 08:14 -15.86531 -47.92542 3473 ft 16 kts 266°
2026-05-01 08:14 -15.86539 -47.92659 3471 ft 16 kts 265°
2026-05-01 08:15 -15.86516 -47.92765 3466 ft 15 kts 342°
2026-05-01 08:15 -15.86350 -47.92677 3460 ft 12 kts 87°
2026-05-01 08:15 -15.86349 -47.92666 3460 ft 0 kts 86°
2026-05-01 08:16 -15.86334 -47.92451 3464 ft 64 kts 87°
2026-05-01 08:16 -15.86290 -47.91766 3470 ft 124 kts 85°
2026-05-01 08:16 -15.86214 -47.90684 3491 ft 173 kts 85°
2026-05-01 08:16 -15.86115 -47.89359 3809 ft 190 kts 86°
2026-05-01 08:17 -15.86049 -47.87997 4587 ft 192 kts 91°
2026-05-01 08:17 -15.86338 -47.86854 4985 ft 212 kts 117°
2026-05-01 08:17 -15.87166 -47.85910 5385 ft 233 kts 142°
2026-05-01 08:17 -15.88732 -47.85383 6120 ft 249 kts 170°
2026-05-01 08:18 -15.90519 -47.85301 6757 ft 264 kts 171°
2026-05-01 08:18 -15.94437 -47.85041 8017 ft 290 kts 171°
2026-05-01 08:19 -15.98316 -47.84025 9356 ft 295 kts 141°
2026-05-01 08:19 -15.99937 -47.82716 10297 ft 290 kts 135°
2026-05-01 08:19 -16.01507 -47.81318 10720 ft 308 kts 136°
2026-05-01 08:19 -16.03239 -47.79825 11036 ft 328 kts 137°
2026-05-01 08:20 -16.05095 -47.78296 11480 ft 342 kts 139°
2026-05-01 08:20 -16.06985 -47.76771 12088 ft 349 kts 139°
2026-05-01 08:20 -16.08929 -47.75203 12749 ft 353 kts 139°
2026-05-01 08:20 -16.10850 -47.73644 13420 ft 356 kts 138°
2026-05-01 08:21 -16.12823 -47.72030 14054 ft 360 kts 138°
2026-05-01 08:21 -16.14775 -47.70428 14676 ft 362 kts 139°
2026-05-01 08:21 -16.16763 -47.68798 15260 ft 366 kts 139°
2026-05-01 08:21 -16.18764 -47.67162 15815 ft 369 kts 139°
2026-05-01 08:22 -16.20802 -47.65499 16402 ft 371 kts 139°
2026-05-01 08:22 -16.22873 -47.63811 16929 ft 374 kts 139°
2026-05-01 08:22 -16.24990 -47.62089 17432 ft 377 kts 140°
2026-05-01 08:22 -16.27144 -47.60336 17928 ft 380 kts 140°
2026-05-01 08:23 -16.29265 -47.58600 18397 ft 383 kts 139°
2026-05-01 08:23 -16.31424 -47.56828 18838 ft 386 kts 139°
2026-05-01 08:23 -16.33581 -47.55056 19280 ft 389 kts 140°
2026-05-01 08:23 -16.35774 -47.53257 19685 ft 392 kts 139°
2026-05-01 08:24 -16.37952 -47.51475 20098 ft 394 kts 140°
2026-05-01 08:24 -16.40168 -47.49662 20499 ft 396 kts 140°
2026-05-01 08:24 -16.42413 -47.47823 20881 ft 399 kts 140°
2026-05-01 08:24 -16.44637 -47.45999 21274 ft 401 kts 140°
2026-05-01 08:25 -16.46876 -47.44152 21620 ft 404 kts 139°
2026-05-01 08:25 -16.49114 -47.42297 21995 ft 406 kts 139°